EW4725 Weather Reports


time (UTC)temp
C
wind
direction
speed
KPH
gust
KPH
rain 1hr
cm
rain 24hr
cm
rain mn
cm
humidity
%
barometer
mb
20260506233135 21 305 9.7 14.5 0.00 0.00 0.00 61 1015.4
20260506232616 21 283 11.3 20.9 0.00 0.00 0.00 60 1015.4
20260506232115 21 283 14.5 20.9 0.00 0.00 0.00 59 1015.4
20260506231615 21 260 11.3 17.7 0.00 0.00 0.00 59 1015.4
20260506231116 21 260 11.3 19.3 0.00 0.00 0.00 59 1015.5
20260506230616 21 260 16.1 24.1 0.00 0.00 0.00 57 1015.6
20260506230135 21 305 12.9 17.7 0.00 0.00 0.00 58 1015.6
20260506225615 21 260 11.3 22.5 0.00 0.00 0.00 57 1015.6
20260506225135 21 238 11.3 20.9 0.00 0.00 0.00 57 1015.7
20260506224616 21 283 11.3 14.5 0.00 0.00 0.00 57 1015.7
20260506224115 21 283 12.9 20.9 0.00 0.00 0.00 56 1015.9
20260506223616 22 283 11.3 17.7 0.00 0.00 0.00 55 1015.8
20260506223116 22 283 12.9 17.7 0.00 0.00 0.00 55 1016.0
20260506222615 22 283 9.7 14.5 0.00 0.00 0.00 56 1015.9
20260506222136 22 260 9.7 14.5 0.00 0.00 0.00 56 1016.0
20260506221615 22 283 11.3 17.7 0.00 0.00 0.00 56 1016.0
20260506221115 22 238 8.0 14.5 0.00 0.00 0.00 55 1016.1
20260506220616 23 260 8.0 16.1 0.00 0.00 0.00 53 1016.2
20260506220135 23 260 3.2 4.8 0.00 0.00 0.00 50 1016.3
20260506215615 23 260 11.3 17.7 0.00 0.00 0.00 49 1016.3
20260506215115 23 260 6.4 12.9 0.00 0.00 0.00 49 1016.4
20260506214615 23 260 3.2 8.0 0.00 0.00 0.00 50 1016.4
20260506214115 22 283 8.0 12.9 0.00 0.00 0.00 51 1016.4
20260506213636 22 193 8.0 12.9 0.00 0.00 0.00 52 1016.5
20260506213116 22 148 6.4 9.7 0.00 0.00 0.00 52 1016.6
20260506212615 22 148 8.0 12.9 0.00 0.00 0.00 52 1016.6
20260506212115 22 260 6.4 11.3 0.00 0.00 0.00 53 1016.7
20260506211615 22 193 4.8 11.3 0.00 0.00 0.00 53 1016.7
20260506211115 22 148 4.8 8.0 0.00 0.00 0.00 53 1016.8
20260506210615 22 148 6.4 9.7 0.00 0.00 0.00 53 1016.8
20260506210115 22 148 8.0 14.5 0.00 0.00 0.00 54 1016.8
20260506205615 22 148 6.4 9.7 0.00 0.00 0.00 53 1016.9
20260506205155 22 193 3.2 9.7 0.00 0.00 0.00 53 1017.0
20260506204616 22 238 3.2 9.7 0.00 0.00 0.00 53 1017.0
20260506204115 22 238 3.2 8.0 0.00 0.00 0.00 53 1017.1
20260506203615 22 148 6.4 11.3 0.00 0.00 0.00 55 1017.1
20260506203115 21 148 6.4 11.3 0.00 0.00 0.00 55 1017.2
20260506202615 22 170 4.8 9.7 0.00 0.00 0.00 54 1017.2
20260506202115 21 260 4.8 9.7 0.00 0.00 0.00 54 1017.2
20260506201615 21 148 6.4 11.3 0.00 0.00 0.00 56 1017.2
20260506201135 21 170 6.4 9.7 0.00 0.00 0.00 56 1017.3
20260506200615 21 215 8.0 14.5 0.00 0.00 0.00 57 1017.3
20260506200115 21 170 3.2 6.4 0.00 0.00 0.00 59 1017.4
20260506195615 21 148 11.3 16.1 0.00 0.00 0.00 57 1017.5
20260506195115 21 103 6.4 12.9 0.00 0.00 0.00 57 1017.5
20260506194615 21 125 4.8 8.0 0.00 0.00 0.00 59 1017.6
20260506194115 21 148 6.4 11.3 0.00 0.00 0.00 59 1017.6
20260506193617 21 148 8.0 17.7 0.00 0.00 0.00 58 1017.6
20260506193117 21 125 1.6 3.2 0.00 0.00 0.00 58 1017.6
20260506192637 21 0.0 1.6 0.00 0.00 0.00 59 1017.7
20260506192115 21 125 8.0 12.9 0.00 0.00 0.00 58 1017.8
20260506191617 21 305 1.6 3.2 0.00 0.00 0.00 59 1017.9
20260506191117 21 260 1.6 4.8 0.00 0.00 0.00 59 1018.0
20260506190617 21 148 6.4 12.9 0.00 0.00 0.00 59 1018.1
20260506190118 21 215 6.4 11.3 0.00 0.00 0.00 60 1018.0
20260506185615 21 148 6.4 11.3 0.00 0.00 0.00 59 1018.1
20260506185117 21 238 6.4 11.3 0.00 0.00 0.00 58 1018.1
20260506184617 21 125 3.2 8.0 0.00 0.00 0.00 59 1018.1
20260506184117 21 148 3.2 6.4 0.00 0.00 0.00 60 1018.2
20260506183637 20 238 3.2 4.8 0.00 0.00 0.00 60 1018.3
20260506183117 20 170 3.2 3.2 0.00 0.00 0.00 62 1018.3
20260506182637 20 125 8.0 14.5 0.00 0.00 0.00 62 1018.3
20260506182137 20 125 9.7 12.9 0.00 0.00 0.00 62 1018.3
20260506181617 20 170 3.2 8.0 0.00 0.00 0.00 63 1018.3
20260506181117 20 148 4.8 8.0 0.00 0.00 0.00 62 1018.3
20260506180637 20 148 6.4 8.0 0.00 0.00 0.00 61 1018.3
20260506180117 20 148 3.2 6.4 0.00 0.00 0.00 63 1018.4
20260506175617 20 148 1.6 3.2 0.00 0.00 0.00 64 1018.3
20260506175117 19 148 8.0 11.3 0.00 0.00 0.00 63 1018.3
20260506174617 19 125 8.0 11.3 0.00 0.00 0.00 62 1018.4
20260506174117 20 125 4.8 8.0 0.00 0.00 0.00 63 1018.4
20260506173617 20 0.0 1.6 0.00 0.00 0.00 63 1018.4
20260506173137 20 103 4.8 14.5 0.00 0.00 0.00 62 1018.4
20260506172617 20 125 4.8 6.4 0.00 0.00 0.00 62 1018.3
20260506172117 20 125 4.8 6.4 0.00 0.00 0.00 61 1018.3
20260506171617 20 215 1.6 6.4 0.00 0.00 0.00 61 1018.4
20260506171117 20 305 1.6 3.2 0.00 0.00 0.00 62 1018.4
20260506170637 20 0.0 3.2 0.00 0.00 0.00 63 1018.4
20260506170117 20 148 4.8 9.7 0.00 0.00 0.00 63 1018.4
20260506165617 20 350 3.2 4.8 0.00 0.00 0.00 63 1018.4
20260506165137 19 215 1.6 3.2 0.00 0.00 0.00 64 1018.3
20260506164617 18 103 4.8 6.4 0.00 0.00 0.00 64 1018.3
20260506164117 18 170 3.2 6.4 0.00 0.00 0.00 65 1018.3
20260506163617 18 58 6.4 8.0 0.00 0.00 0.00 65 1018.4
20260506163117 18 125 3.2 4.8 0.00 0.00 0.00 68 1018.4
20260506162617 18 80 4.8 8.0 0.00 0.00 0.00 68 1018.4
20260506162117 18 58 3.2 4.8 0.00 0.00 0.00 69 1018.3
20260506161617 18 58 6.4 9.7 0.00 0.00 0.00 70 1018.3
20260506161137 17 80 4.8 8.0 0.00 0.00 0.00 71 1018.3
20260506160617 17 103 1.6 3.2 0.00 0.00 0.00 73 1018.3
20260506160117 17 125 6.4 8.0 0.00 0.00 0.00 73 1018.4
20260506155617 17 103 8.0 12.9 0.00 0.00 0.00 73 1018.4
20260506155137 17 103 4.8 12.9 0.00 0.00 0.00 74 1018.4
20260506154617 17 125 3.2 8.0 0.00 0.00 0.00 74 1018.4
20260506154117 17 125 4.8 6.4 0.00 0.00 0.00 76 1018.4
20260506153617 17 125 3.2 4.8 0.00 0.00 0.00 76 1018.4
20260506153117 17 125 4.8 6.4 0.00 0.00 0.00 75 1018.4
20260506152617 17 125 1.6 3.2 0.00 0.00 0.00 77 1018.5
20260506152116 16 125 4.8 6.4 0.00 0.00 0.00 77 1018.5
20260506151616 16 125 3.2 4.8 0.00 0.00 0.00 78 1018.5
20260506151117 16 125 4.8 8.0 0.00 0.00 0.00 78 1018.5
20260506150617 16 125 1.6 4.8 0.00 0.00 0.00 78 1018.5
20260506150117 16 148 1.6 3.2 0.00 0.00 0.00 78 1018.5
20260506145616 16 148 3.2 4.8 0.00 0.00 0.00 79 1018.5
20260506145157 16 125 1.6 3.2 0.00 0.00 0.00 80 1018.5
20260506144616 15 148 1.6 6.4 0.00 0.00 0.00 80 1018.5
20260506144116 15 125 1.6 3.2 0.00 0.00 0.00 81 1018.4
20260506143617 15 148 3.2 4.8 0.00 0.00 0.00 80 1018.4
20260506143137 15 125 1.6 3.2 0.00 0.00 0.00 81 1018.4
20260506142617 15 125 3.2 6.4 0.00 0.00 0.00 81 1018.4
20260506142116 14 148 3.2 6.4 0.00 0.00 0.00 81 1018.3
20260506141637 14 148 3.2 3.2 0.00 0.00 0.00 83 1018.2
20260506141116 13 125 3.2 3.2 0.00 0.00 0.00 84 1018.2
20260506140616 13 148 3.2 6.4 0.00 0.00 0.00 85 1018.2
20260506140217 13 148 3.2 3.2 0.00 0.00 0.00 86 1018.2
20260506135617 13 148 1.6 4.8 0.00 0.00 0.00 86 1018.2
20260506135136 13 148 1.6 1.6 0.00 0.00 0.00 87 1018.1
20260506134617 13 148 1.6 1.6 0.00 0.00 0.00 87 1018.2
20260506134117 12 0.0 0.0 0.00 0.00 0.00 88 1018.1
20260506133616 12 0.0 1.6 0.00 0.00 0.00 89 1018.1
20260506133136 12 0.0 1.6 0.00 0.00 0.00 90 1018.0
20260506132617 12 0.0 0.0 0.00 0.00 0.00 90 1018.0
20260506132136 12 0.0 0.0 0.00 0.00 0.00 90 1017.9
20260506131617 12 0.0 1.6 0.00 0.00 0.00 90 1017.8
20260506131116 12 0.0 1.6 0.00 0.00 0.00 90 1017.8
20260506130617 12 0.0 0.0 0.00 0.00 0.00 90 1017.7
20260506130117 12 0.0 0.0 0.00 0.00 0.00 90 1017.7
20260506125617 12 0.0 1.6 0.00 0.00 0.00 91 1017.7
20260506125116 12 0.0 0.0 0.00 0.00 0.00 91 1017.6
20260506124616 12 148 1.6 3.2 0.00 0.00 0.00 91 1017.5
20260506124116 12 148 1.6 3.2 0.00 0.00 0.00 91 1017.5
20260506123616 12 148 3.2 4.8 0.00 0.00 0.00 91 1017.5
20260506123116 12 0.0 1.6 0.00 0.00 0.00 91 1017.4
20260506122616 12 148 1.6 1.6 0.00 0.00 0.00 91 1017.4
20260506122116 12 148 1.6 3.2 0.00 0.00 0.00 91 1017.3
20260506121657 12 148 1.6 1.6 0.00 0.00 0.00 91 1017.3
20260506121156 12 148 3.2 3.2 0.00 0.00 0.00 91 1017.4
20260506120616 12 148 1.6 3.2 0.00 0.00 0.00 91 1017.4
20260506120116 12 148 3.2 6.4 0.00 0.00 0.00 91 1017.3
20260506115617 12 148 3.2 3.2 0.00 0.00 0.00 91 1017.3
20260506115136 12 148 1.6 3.2 0.00 0.00 0.00 91 1017.2
20260506114616 12 148 1.6 3.2 0.00 0.00 0.00 91 1017.2
20260506114116 12 0.0 0.0 0.00 0.00 0.00 92 1017.2
20260506113616 12 0.0 0.0 0.00 0.00 0.00 91 1017.1
20260506113116 12 0.0 0.0 0.00 0.00 0.00 91 1017.2
20260506112616 12 0.0 0.0 0.00 0.00 0.00 91 1017.0
20260506112116 12 0.0 0.0 0.00 0.00 0.00 91 1017.0
20260506111616 12 0.0 0.0 0.00 0.00 0.00 91 1017.0
20260506111117 12 0.0 0.0 0.00 0.00 0.00 91 1017.1
20260506110616 12 0.0 0.0 0.00 0.00 0.00 91 1017.0
20260506110116 12 0.0 0.0 0.00 0.00 0.00 92 1017.1
20260506105616 12 0.0 1.6 0.00 0.00 0.00 92 1017.1
20260506105116 12 148 1.6 1.6 0.00 0.00 0.00 92 1017.1
20260506104616 12 148 1.6 1.6 0.00 0.00 0.00 92 1017.1
20260506104116 12 0.0 0.0 0.00 0.00 0.00 92 1017.1
20260506103616 12 0.0 0.0 0.00 0.05 0.00 92 1017.1
20260506103116 12 0.0 0.0 0.00 0.05 0.00 91 1017.1
20260506102636 12 0.0 0.0 0.00 0.05 0.00 91 1017.1
20260506102116 12 0.0 0.0 0.00 0.05 0.00 91 1017.1
20260506101616 12 0.0 0.0 0.00 0.05 0.00 91 1017.1
20260506101116 12 0.0 0.0 0.00 0.05 0.00 92 1017.1
20260506100616 12 0.0 0.0 0.00 0.05 0.00 92 1017.0
20260506100116 12 0.0 0.0 0.00 0.05 0.00 91 1017.1
20260506095616 12 0.0 0.0 0.00 0.05 0.00 91 1017.1
20260506095116 12 0.0 0.0 0.00 0.05 0.00 91 1017.2
20260506094616 12 0.0 0.0 0.00 0.05 0.00 91 1017.1
20260506094116 12 0.0 0.0 0.00 0.08 0.00 90 1017.2
20260506093616 12 0.0 0.0 0.00 0.10 0.00 90 1017.1
20260506093217 12 0.0 0.0 0.00 0.10 0.00 89 1017.1
20260506092616 12 0.0 0.0 0.00 0.10 0.00 89 1017.2
20260506092116 12 0.0 0.0 0.00 0.10 0.00 88 1017.2
20260506091616 12 0.0 0.0 0.00 0.10 0.00 88 1017.2
20260506091116 13 0.0 0.0 0.00 0.10 0.00 88 1017.3
20260506090616 13 0.0 0.0 0.00 0.10 0.00 88 1017.3
20260506090116 13 0.0 0.0 0.00 0.10 0.00 89 1017.3
20260506085616 13 0.0 0.0 0.00 0.10 0.00 88 1017.3
20260506085116 13 0.0 0.0 0.00 0.10 0.00 87 1017.3
20260506084616 13 0.0 0.0 0.00 0.10 0.00 86 1017.4
20260506084116 13 0.0 0.0 0.00 0.10 0.00 85 1017.5
20260506083616 13 0.0 0.0 0.00 0.10 0.00 86 1017.5
20260506083116 13 0.0 0.0 0.00 0.10 0.00 86 1017.4
20260506082636 13 0.0 1.6 0.00 0.10 0.00 86 1017.5
20260506082116 14 0.0 0.0 0.00 0.10 0.00 85 1017.5
20260506081616 14 0.0 1.6 0.00 0.10 0.00 85 1017.4
20260506081116 14 0.0 0.0 0.00 0.10 0.00 85 1017.6
20260506080616 14 0.0 1.6 0.00 0.10 0.00 85 1017.5
20260506080116 14 0.0 1.6 0.00 0.10 0.00 85 1017.5
20260506073116 14 0.0 0.0 0.00 0.20 0.00 84 1017.5
20260506072616 15 0.0 1.6 0.00 0.20 0.00 84 1017.5
20260506072116 15 148 1.6 1.6 0.00 0.20 0.00 83 1017.5
20260506071636 15 148 1.6 3.2 0.00 0.23 0.00 83 1017.4
20260506071136 15 148 1.6 3.2 0.00 0.23 0.00 83 1017.4
20260506070616 15 148 1.6 1.6 0.00 0.23 0.00 83 1017.3
20260506070116 15 148 1.6 1.6 0.00 0.23 0.00 83 1017.3
20260506062116 13 125 1.6 1.6 0.00 0.53 0.25 84 1017.1
20260506061616 13 0.0 0.0 0.00 0.58 0.25 84 1017.1
20260506061116 13 0.0 0.0 0.00 0.61 0.25 82 1017.1
20260506060616 13 0.0 0.0 0.00 0.66 0.25 82 1017.0
20260506060116 14 0.0 0.0 0.00 0.79 0.25 80 1016.9
20260506051116 14 0.0 0.0 0.00 0.97 0.25 80 1016.6
20260506050616 14 0.0 0.0 0.00 0.97 0.25 81 1016.6
20260506050156 14 0.0 0.0 0.00 0.97 0.25 82 1016.5
20260506045116 14 0.0 0.0 0.00 0.97 0.25 80 1016.3
20260506044616 15 0.0 0.0 0.00 0.97 0.25 81 1016.3
20260506044116 15 0.0 0.0 0.00 0.97 0.25 80 1016.2
20260506043636 15 0.0 0.0 0.00 0.97 0.25 78 1016.2
20260506043116 15 0.0 0.0 0.00 0.97 0.25 79 1016.2
20260506042616 15 0.0 0.0 0.00 0.97 0.25 78 1016.2
20260506042116 15 0.0 0.0 0.00 0.97 0.25 78 1016.1
20260506041616 15 0.0 0.0 0.00 0.97 0.25 78 1016.1
20260506041116 15 0.0 0.0 0.00 0.97 0.25 78 1016.0
20260506040616 15 0.0 0.0 0.00 0.97 0.25 77 1015.9
20260506040116 15 0.0 0.0 0.00 0.97 0.25 77 1015.9
20260506035616 15 0.0 0.0 0.00 0.97 0.25 76 1015.8
20260506035116 16 0.0 0.0 0.00 0.97 0.25 76 1015.6
20260506034616 16 0.0 0.0 0.00 0.97 0.25 75 1015.6
20260506034116 16 0.0 1.6 0.00 0.97 0.25 74 1015.5
20260506033616 16 283 3.2 3.2 0.00 0.97 0.25 74 1015.4
20260506033116 16 260 3.2 3.2 0.00 0.97 0.25 73 1015.4
20260506032616 16 260 3.2 3.2 0.00 0.97 0.25 72 1015.4
20260506032116 16 283 3.2 4.8 0.00 0.97 0.25 71 1015.4
20260506031616 16 283 4.8 8.0 0.00 0.97 0.25 70 1015.3
20260506031116 16 305 1.6 1.6 0.00 0.97 0.25 67 1015.3
20260506030616 16 283 3.2 3.2 0.00 0.97 0.25 65 1015.1
20260506030116 16 283 3.2 4.8 0.00 0.97 0.25 64 1015.0
20260506025616 17 283 1.6 3.2 0.00 0.97 0.25 63 1014.8
20260506025116 17 283 3.2 6.4 0.00 0.97 0.25 63 1014.8
20260506024636 17 283 4.8 8.0 0.00 0.97 0.25 62 1014.7
20260506024116 17 283 1.6 3.2 0.00 0.97 0.25 61 1014.7
20260506023616 17 283 4.8 6.4 0.00 0.97 0.25 59 1014.6
20260506023116 17 283 3.2 6.4 0.00 0.97 0.25 58 1014.5
20260506022616 17 260 1.6 4.8 0.00 0.97 0.25 56 1014.5
20260506022116 17 260 1.6 6.4 0.00 1.02 0.25 54 1014.5
20260506021616 17 283 3.2 4.8 0.00 1.04 0.25 53 1014.5
20260506021116 17 283 3.2 4.8 0.00 1.04 0.25 53 1014.4
20260506020656 17 283 4.8 6.4 0.00 1.04 0.25 54 1014.3
20260506020116 18 283 4.8 8.0 0.00 1.04 0.25 54 1014.4
20260506015616 18 283 4.8 8.0 0.00 1.04 0.25 53 1014.4
20260506015136 18 283 3.2 4.8 0.00 1.04 0.25 55 1014.3
20260506014616 18 260 3.2 6.4 0.00 1.04 0.25 53 1014.2
20260506014116 18 260 4.8 6.4 0.00 1.04 0.25 53 1014.1
20260506013616 18 283 4.8 8.0 0.00 1.04 0.25 54 1014.1
20260506013116 18 305 6.4 9.7 0.00 1.04 0.25 53 1014.1
20260506012616 18 260 4.8 8.0 0.00 1.04 0.25 54 1014.1
20260506012136 18 260 8.0 11.3 0.00 1.04 0.25 57 1014.1
20260506011616 18 283 8.0 11.3 0.00 1.04 0.25 57 1014.1
20260506011116 18 283 6.4 9.7 0.00 1.04 0.25 58 1014.1
20260506010616 18 260 11.3 19.3 0.00 1.04 0.25 56 1014.0
20260506010116 18 260 9.7 17.7 0.00 1.04 0.25 57 1014.0
20260506005616 18 260 8.0 12.9 0.00 1.04 0.25 57 1014.0
20260506005116 18 260 11.3 16.1 0.00 1.04 0.25 57 1014.0
20260506004616 18 238 12.9 19.3 0.00 1.04 0.25 57 1014.0
20260506004116 18 283 9.7 14.5 0.00 1.04 0.25 59 1014.0
20260506003616 18 260 4.8 6.4 0.00 1.04 0.25 59 1014.0
20260506003136 18 260 9.7 16.1 0.00 1.04 0.25 58 1014.0
20260506002656 18 260 9.7 14.5 0.00 1.04 0.25 58 1013.9
20260506002115 18 283 8.0 12.9 0.00 1.04 0.25 58 1013.9
20260506001616 18 260 11.3 14.5 0.00 1.04 0.25 58 1014.0
20260506001115 18 283 11.3 19.3 0.00 1.04 0.25 59 1014.0
20260506000656 18 283 9.7 14.5 0.00 1.04 0.25 58 1014.0
20260506000115 18 260 9.7 12.9 0.00 1.04 0.25 56 1014.0
20260505235616 18 260 8.0 11.3 0.00 1.04 0.25 58 1014.0
20260505235116 18 260 9.7 16.1 0.00 1.04 0.25 57 1014.1
20260505234616 18 305 6.4 9.7 0.00 1.04 0.25 57 1014.0
20260505234115 18 305 6.4 9.7 0.00 1.04 0.25 57 1014.1
20260505233636 18 283 11.3 16.1 0.00 1.04 0.25 56 1014.1